Location: Chuathbaluk
(61.5726°N, 159.2454°W)
Time: 15:15:54
(UTC+00:00)

ITAMSAT 1 - Pass Details

Date: 21 January 2021
Orbit: 784 x 796 km, 98.9° (Epoch: 01 March)

Event Time Altitude Azimuth Distance (km) Brightness Sun altitude
Rises 18:08:33 0° 19° (NNE) 3,291 10.8 -8.2°
Reaches altitude 10° 18:10:52 10° 18° (NNE) 2,359 10.0 -8.0°
Maximum altitude 18:16:04 75° 294° (WNW) 819 7.6 -7.5°
Drops below altitude 10° 18:21:14 10° 210° (SSW) 2,347 10.1 -6.9°
Sets 18:23:33 0° 209° (SSW) 3,274 10.9 -6.7°
